| Date | Time | Temp. (oF) | Dew Point (oF) | Rel. Hum. (%) | Press. (in.) | Wind Dir. | Wind Speed (mph) | Hourly Rainfall (in.) |
|
|---|---|---|---|---|---|---|---|---|---|
| 1 | 11/10 | 00:00 | 61 | 60 | 97 | 29.65 | SW | 2 | 0.00 |
| 2 | 11/09 | 23:00 | 64 | 61 | 91 | 29.61 | SW | 3 | 0.00 |
| 3 | 11/09 | 22:00 | 63 | 60 | 93 | 29.62 | S | 5 | 0.00 |
| 4 | 11/09 | 21:00 | 63 | 60 | 93 | 29.65 | SW | 4 | 0.00 |
| 5 | 11/09 | 20:00 | 62 | 59 | 93 | 29.68 | SSW | 5 | 0.00 |
| 6 | 11/09 | 19:00 | 62 | 60 | 94 | 29.73 | SSW | 4 | 0.00 |
| 7 | 11/09 | 18:00 | 61 | 59 | 94 | 29.76 | S | 8 | 0.00 |
| 8 | 11/09 | 17:00 | 61 | 58 | 91 | 29.78 | S | 7 | 0.00 |
| 9 | 11/09 | 16:00 | 62 | 57 | 86 | 29.78 | S | 10 | 0.00 |
| 10 | 11/09 | 15:00 | 62 | 56 | 83 | 29.82 | SSE | 4 | 0.00 |
| 11 | 11/09 | 14:00 | 61 | 56 | 86 | 29.87 | S | 7 | 0.00 |
| 12 | 11/09 | 13:00 | 59 | 54 | 84 | 29.92 | SE | 3 | 0.00 |
| 13 | 11/09 | 12:00 | 58 | 52 | 83 | 29.97 | SSE | 6 | 0.00 |
| 14 | 11/09 | 11:00 | 56 | 50 | 81 | 30.03 | E | 4 | 0.00 |
| 15 | 11/09 | 10:00 | 54 | 47 | 80 | 30.08 | E | 2 | 0.00 |
| 16 | 11/09 | 09:00 | 53 | 46 | 79 | 30.09 | NE | 2 | 0.00 |
| 17 | 11/09 | 08:00 | 52 | 45 | 78 | 30.10 | NNE | 5 | 0.00 |
| 18 | 11/09 | 07:00 | 52 | 44 | 76 | 30.11 | E | 7 | 0.00 |
| 19 | 11/09 | 06:00 | 52 | 44 | 75 | 30.11 | ENE | 4 | 0.00 |
| 20 | 11/09 | 05:00 | 52 | 43 | 73 | 30.13 | ENE | 4 | 0.00 |
| 21 | 11/09 | 04:00 | 53 | 44 | 72 | 30.13 | NE | 3 | 0.00 |
| 22 | 11/09 | 03:00 | 54 | 45 | 72 | 30.13 | SSE | 4 | 0.00 |
| 23 | 11/09 | 02:00 | 55 | 46 | 73 | 30.14 | NE | 8 | 0.00 |
| 24 | 11/09 | 01:00 | 55 | 46 | 74 | 30.14 | NE | 6 | 0.00 |